This is the latest recevied weather packets stored in our database for station/object NC4J. If no packets are shown the sender has not sent any weather packets the latest 1 day(s).
| Time | Temp. | Humidity | Pressure | Rain* | Wind** | Luminosity | Snow |
|---|---|---|---|---|---|---|---|
| 1778031474 | 18.33° C | 48% | 1015.3 hPa | 0 mm | 0.45 m/s, 143° | 0 W/m² | - |
| 1778031171 | 18.33° C | 49% | 1015.2 hPa | 0 mm | 0 m/s | 0 W/m² | - |
| 1778030868 | 18.89° C | 49% | 1015.1 hPa | 0 mm | 0 m/s | 0 W/m² | - |
| 1778030565 | 18.89° C | 47% | 1015.2 hPa | 0 mm | 0.45 m/s, 130° | 0 W/m² | - |
| 1778030262 | 18.89° C | 46% | 1015.1 hPa | 0 mm | 0.45 m/s, 130° | 0 W/m² | - |
| 1778029958 | 18.89° C | 47% | 1015.1 hPa | 0 mm | 0.45 m/s, 128° | 0 W/m² | - |
| 1778029657 | 18.89° C | 47% | 1015.2 hPa | 0 mm | 0.45 m/s, 122° | 0 W/m² | - |
| 1778029353 | 18.89° C | 48% | 1015.1 hPa | 0 mm | 0.45 m/s, 122° | 0 W/m² | - |
| 1778029051 | 18.89° C | 45% | 1015.3 hPa | 0 mm | 0 m/s | 0 W/m² | - |
| 1778028747 | 18.89° C | 46% | 1015.2 hPa | 0 mm | 0.45 m/s, 122° | 0 W/m² | - |
| 1778028443 | 18.89° C | 47% | 1015 hPa | 0 mm | 0.45 m/s, 123° | 0 W/m² | - |
| 1778028141 | 18.89° C | 47% | 1014.7 hPa | 0 mm | 0 m/s | 0 W/m² | - |
| 1778027837 | 18.89° C | 45% | 1015 hPa | 0 mm | 0 m/s | 0 W/m² | - |
| 1778027534 | 19.44° C | 46% | 1015.1 hPa | 0 mm | 0 m/s | 0 W/m² | - |
| 1778027229 | 19.44° C | 44% | 1014.9 hPa | 0 mm | 0 m/s | 0 W/m² | - |
| 1778026926 | 19.44° C | 45% | 1014.8 hPa | 0 mm | 0.45 m/s, 66° | 1 W/m² | - |
| 1778026621 | 19.44° C | 44% | 1014.9 hPa | 0 mm | 0.45 m/s, 83° | 1 W/m² | - |
| 1778026319 | 19.44° C | 45% | 1014.9 hPa | 0 mm | 0 m/s | 2 W/m² | - |
| 1778026016 | 19.44° C | 44% | 1015 hPa | 0 mm | 0 m/s | 3 W/m² | - |
| 1778025714 | 20° C | 46% | 1015.1 hPa | 0 mm | 0.45 m/s, 98° | 7 W/m² | - |
| 1778025411 | 20° C | 43% | 1014.9 hPa | 0 mm | 0.45 m/s, 96° | 7 W/m² | - |
| 1778025109 | 20.56° C | 42% | 1014.9 hPa | 0 mm | 0 m/s | 8 W/m² | - |
| 1778024805 | 20° C | 40% | 1015.2 hPa | 0 mm | 0 m/s | 10 W/m² | - |
| 1778024502 | 20° C | 44% | 1015.1 hPa | 0 mm | 0 m/s | 14 W/m² | - |
| 1778024199 | 20.56° C | 41% | 1014.8 hPa | 0 mm | 0 m/s | 15 W/m² | - |
* Rain latest hour (hover to see other rain measurements)
** Current wind speed in m/s (hover to see current wind gust speed)